Wetterdaten: Woche 12.10.09 - 18.10.09 (KW42)
Datum Zeit Temperatur Luftfeuchte Luftdruck Niederschlag Windrichtung Wind
12.10.2009 00:00 11,3 C 80 % 1009,8 hPa 0,0 l/m W-SW 26,2 km/h (4 Bft)
12.10.2009 01:00 10,8 C 85 % 1008,2 hPa 0,0 l/m W-SW 32,9 km/h (5 Bft)
12.10.2009 02:00 11,0 C 86 % 1006,5 hPa 0,8 l/m W-SW 32,9 km/h (5 Bft)
12.10.2009 03:00 10,6 C 93 % 1005,0 hPa 0,8 l/m W 33,1 km/h (5 Bft)
12.10.2009 04:00 10,2 C 91 % 1005,4 hPa 3,6 l/m N-NO 28,6 km/h (4 Bft)
12.10.2009 05:00 7,9 C 92 % 1006,8 hPa 0,0 l/m N-NO 14,9 km/h (3 Bft)
12.10.2009 06:00 7,1 C 91 % 1007,8 hPa 0,2 l/m N-NW 24,1 km/h (4 Bft)
12.10.2009 07:00 6,9 C 91 % 1009,8 hPa 0,0 l/m N-NW 16,4 km/h (3 Bft)
12.10.2009 08:00 6,8 C 91 % 1012,2 hPa 0,0 l/m W-NW 8,7 km/h (2 Bft)
12.10.2009 09:00 7,3 C 91 % 1013,5 hPa 0,0 l/m W 9,2 km/h (2 Bft)
12.10.2009 10:00 8,6 C 85 % 1013,8 hPa 0,0 l/m W-NW 18,0 km/h (3 Bft)
12.10.2009 11:00 8,9 C 81 % 1014,1 hPa 0,0 l/m W-NW 21,6 km/h (4 Bft)
12.10.2009 12:00 10,2 C 75 % 1014,3 hPa 0,0 l/m W-NW 27,2 km/h (4 Bft)
12.10.2009 13:00 9,6 C 79 % 1014,5 hPa 0,6 l/m N 27,4 km/h (4 Bft)
12.10.2009 14:00 8,9 C 84 % 1014,9 hPa 0,0 l/m N-NW 24,0 km/h (4 Bft)
12.10.2009 15:00 8,6 C 82 % 1015,7 hPa 0,2 l/m N-NW 26,0 km/h (4 Bft)
12.10.2009 16:00 8,8 C 81 % 1016,6 hPa 0,0 l/m NW 24,0 km/h (4 Bft)
12.10.2009 17:00 8,3 C 82 % 1018,1 hPa 0,0 l/m N-NO 27,1 km/h (4 Bft)
12.10.2009 18:00 7,1 C 85 % 1019,6 hPa 0,0 l/m N-NO 20,4 km/h (4 Bft)
12.10.2009 19:00 6,6 C 81 % 1020,7 hPa 0,0 l/m N 9,7 km/h (2 Bft)
12.10.2009 20:00 6,5 C 80 % 1021,4 hPa 0,0 l/m NW 14,8 km/h (3 Bft)
12.10.2009 21:00 6,0 C 82 % 1022,8 hPa 0,0 l/m N-NW 9,4 km/h (2 Bft)
12.10.2009 22:00 5,2 C 86 % 1023,6 hPa 0,0 l/m N 2,4 km/h (1 Bft)
12.10.2009 23:00 5,0 C 88 % 1024,0 hPa 0,0 l/m W-NW 8,6 km/h (2 Bft)
13.10.2009 00:00 4,8 C 87 % 1024,1 hPa 0,0 l/m W-NW 8,2 km/h (2 Bft)
13.10.2009 01:00 4,9 C 87 % 1024,3 hPa 0,0 l/m W-NW 9,5 km/h (2 Bft)
13.10.2009 02:00 5,3 C 87 % 1024,4 hPa 0,0 l/m W 5,9 km/h (2 Bft)
13.10.2009 03:00 5,0 C 89 % 1024,2 hPa 0,0 l/m S-SW 3,3 km/h (1 Bft)
13.10.2009 04:00 4,8 C 91 % 1023,9 hPa 0,0 l/m W-NW 6,7 km/h (2 Bft)
13.10.2009 05:00 5,0 C 92 % 1023,9 hPa 0,0 l/m W-NW 5,1 km/h (1 Bft)
13.10.2009 06:00 4,9 C 91 % 1024,2 hPa 0,0 l/m W-NW 2,4 km/h (1 Bft)
13.10.2009 07:00 3,9 C 92 % 1024,6 hPa 0,2 l/m N 3,2 km/h (1 Bft)
13.10.2009 08:00 3,8 C 94 % 1025,2 hPa 0,0 l/m W-NW 4,5 km/h (1 Bft)
13.10.2009 09:00 5,2 C 92 % 1025,7 hPa 0,0 l/m NW 11,4 km/h (2 Bft)
13.10.2009 10:00 6,8 C 82 % 1025,8 hPa 0,0 l/m W-NW 14,9 km/h (3 Bft)
13.10.2009 11:00 6,9 C 81 % 1025,8 hPa 0,0 l/m W-NW 18,8 km/h (3 Bft)
13.10.2009 12:00 6,9 C 83 % 1025,7 hPa 0,0 l/m W-NW 14,1 km/h (3 Bft)
13.10.2009 13:00 8,7 C 73 % 1024,9 hPa 0,0 l/m W-NW 21,6 km/h (4 Bft)
13.10.2009 14:00 9,0 C 69 % 1024,5 hPa 0,2 l/m W 19,8 km/h (4 Bft)
13.10.2009 15:00 8,4 C 72 % 1024,2 hPa 0,0 l/m NW 16,1 km/h (3 Bft)
13.10.2009 16:00 7,6 C 75 % 1024,3 hPa 0,0 l/m N-NW 20,0 km/h (4 Bft)
13.10.2009 17:00 7,1 C 77 % 1024,4 hPa 0,0 l/m W-NW 15,3 km/h (3 Bft)
13.10.2009 18:00 6,1 C 78 % 1024,8 hPa 0,0 l/m NW 8,6 km/h (2 Bft)
13.10.2009 19:00 5,5 C 86 % 1024,9 hPa 0,0 l/m W 5,2 km/h (1 Bft)
13.10.2009 20:00 5,0 C 91 % 1025,0 hPa 2,4 l/m N-NW 10,7 km/h (2 Bft)
13.10.2009 21:00 4,3 C 93 % 1024,9 hPa 0,0 l/m N-NW 4,4 km/h (1 Bft)
13.10.2009 22:00 3,9 C 95 % 1024,4 hPa 0,0 l/m W-NW 5,4 km/h (1 Bft)
13.10.2009 23:00 4,4 C 94 % 1024,0 hPa 0,4 l/m W-NW 4,9 km/h (1 Bft)
14.10.2009 00:00 4,1 C 93 % 1023,8 hPa 1,8 l/m NW 9,9 km/h (2 Bft)
14.10.2009 01:00 3,6 C 94 % 1023,9 hPa 0,2 l/m N 14,1 km/h (3 Bft)
14.10.2009 02:00 3,1 C 94 % 1024,5 hPa 0,4 l/m N-NO 11,7 km/h (2 Bft)
14.10.2009 03:00 2,8 C 94 % 1024,6 hPa 0,0 l/m NO 6,8 km/h (2 Bft)
14.10.2009 04:00 2,7 C 95 % 1024,9 hPa 0,0 l/m N-NO 2,8 km/h (1 Bft)
14.10.2009 05:00 2,9 C 95 % 1025,2 hPa 0,0 l/m N-NO 7,5 km/h (2 Bft)
14.10.2009 06:00 2,4 C 92 % 1025,6 hPa 0,0 l/m NO 9,1 km/h (2 Bft)
14.10.2009 07:00 1,5 C 91 % 1025,7 hPa 0,0 l/m N-NO 4,3 km/h (1 Bft)
14.10.2009 08:00 0,8 C 94 % 1025,8 hPa 0,0 l/m NO 4,4 km/h (1 Bft)
14.10.2009 09:00 1,5 C 93 % 1026,1 hPa 0,0 l/m O-NO 7,8 km/h (2 Bft)
14.10.2009 10:00 2,1 C 88 % 1026,5 hPa 0,0 l/m O-NO 5,6 km/h (1 Bft)
14.10.2009 11:00 3,9 C 76 % 1026,7 hPa 0,0 l/m O-SO 10,3 km/h (2 Bft)
14.10.2009 12:00 4,6 C 66 % 1026,6 hPa 0,0 l/m N-NO 9,0 km/h (2 Bft)
14.10.2009 13:00 5,0 C 63 % 1026,1 hPa 0,0 l/m NO 13,3 km/h (3 Bft)
14.10.2009 14:00 5,3 C 60 % 1025,8 hPa 0,0 l/m N 15,8 km/h (3 Bft)
14.10.2009 15:00 4,7 C 60 % 1026,0 hPa 0,0 l/m N-NO 12,1 km/h (2 Bft)
14.10.2009 16:00 4,6 C 57 % 1026,0 hPa 0,0 l/m NO 9,7 km/h (2 Bft)
14.10.2009 17:00 4,1 C 65 % 1026,2 hPa 0,0 l/m N-NO 8,0 km/h (2 Bft)
14.10.2009 18:00 3,6 C 71 % 1026,4 hPa 0,0 l/m NO 4,1 km/h (1 Bft)
14.10.2009 19:00 2,5 C 81 % 1026,5 hPa 0,0 l/m NO 3,5 km/h (1 Bft)
14.10.2009 20:00 2,1 C 81 % 1026,7 hPa 0,0 l/m N 6,9 km/h (2 Bft)
14.10.2009 21:00 2,3 C 76 % 1026,7 hPa 0,0 l/m N-NO 11,3 km/h (2 Bft)
14.10.2009 22:00 1,9 C 74 % 1026,5 hPa 0,0 l/m NO 8,0 km/h (2 Bft)
14.10.2009 23:00 1,2 C 77 % 1026,3 hPa 0,0 l/m N 4,4 km/h (1 Bft)
15.10.2009 00:00 0,1 C 84 % 1026,0 hPa 0,0 l/m N 2,8 km/h (1 Bft)
15.10.2009 01:00 -0,6 C 86 % 1025,8 hPa 0,0 l/m N 3,2 km/h (1 Bft)
15.10.2009 02:00 -0,4 C 86 % 1025,6 hPa 0,0 l/m N 1,2 km/h (1 Bft)
15.10.2009 03:00 0,0 C 86 % 1025,6 hPa 0,0 l/m N 1,5 km/h (1 Bft)
15.10.2009 04:00 0,1 C 87 % 1025,1 hPa 0,0 l/m N 1,2 km/h (1 Bft)
15.10.2009 05:00 -0,6 C 86 % 1025,2 hPa 0,0 l/m N 1,1 km/h (0 Bft)
15.10.2009 06:00 -1,4 C 87 % 1025,3 hPa 0,0 l/m N 0,0 km/h (0 Bft)
15.10.2009 07:00 -2,1 C 89 % 1025,3 hPa 0,0 l/m N 0,1 km/h (0 Bft)
15.10.2009 08:00 -2,4 C 91 % 1025,5 hPa 0,0 l/m N 0,9 km/h (0 Bft)
15.10.2009 09:00 -1,7 C 93 % 1025,7 hPa 0,0 l/m N-NO 4,0 km/h (1 Bft)
15.10.2009 10:00 1,1 C 82 % 1025,8 hPa 0,0 l/m O-NO 7,4 km/h (2 Bft)
15.10.2009 11:00 2,5 C 66 % 1025,8 hPa 0,0 l/m N-NO 10,5 km/h (2 Bft)
15.10.2009 12:00 2,4 C 58 % 1025,7 hPa 0,0 l/m N-NO 7,4 km/h (2 Bft)
15.10.2009 13:00 3,1 C 55 % 1025,2 hPa 0,0 l/m NW 9,7 km/h (2 Bft)
15.10.2009 14:00 3,2 C 58 % 1024,9 hPa 0,0 l/m W-NW 9,1 km/h (2 Bft)
15.10.2009 15:00 3,1 C 61 % 1025,0 hPa 0,0 l/m W-NW 7,1 km/h (2 Bft)
15.10.2009 16:00 3,0 C 63 % 1024,7 hPa 0,0 l/m W-NW 7,1 km/h (2 Bft)
15.10.2009 17:00 3,1 C 65 % 1024,9 hPa 0,0 l/m NW 7,4 km/h (2 Bft)
15.10.2009 18:00 2,9 C 67 % 1025,4 hPa 0,0 l/m N-NW 4,9 km/h (1 Bft)
15.10.2009 19:00 2,7 C 71 % 1025,9 hPa 0,0 l/m N 4,0 km/h (1 Bft)
15.10.2009 20:00 2,4 C 74 % 1026,1 hPa 0,0 l/m N 4,8 km/h (1 Bft)
15.10.2009 21:00 2,2 C 76 % 1026,3 hPa 0,0 l/m N 2,7 km/h (1 Bft)
15.10.2009 22:00 1,9 C 76 % 1026,4 hPa 0,0 l/m N-NO 2,5 km/h (1 Bft)
15.10.2009 23:00 1,7 C 81 % 1026,5 hPa 0,0 l/m N 1,6 km/h (1 Bft)
16.10.2009 00:00 1,1 C 83 % 1026,3 hPa 0,0 l/m N 1,7 km/h (1 Bft)
16.10.2009 01:00 0,8 C 87 % 1026,1 hPa 0,0 l/m S-SW 3,1 km/h (1 Bft)
16.10.2009 02:00 1,1 C 87 % 1025,6 hPa 0,0 l/m S-SW 5,1 km/h (1 Bft)
16.10.2009 03:00 1,2 C 85 % 1025,2 hPa 0,0 l/m S-SW 4,0 km/h (1 Bft)
16.10.2009 04:00 1,1 C 86 % 1024,9 hPa 0,0 l/m SW 3,9 km/h (1 Bft)
16.10.2009 05:00 1,1 C 85 % 1024,7 hPa 0,0 l/m W 6,7 km/h (2 Bft)
16.10.2009 06:00 1,4 C 82 % 1024,6 hPa 0,0 l/m W-SW 8,2 km/h (2 Bft)
16.10.2009 07:00 1,6 C 83 % 1024,8 hPa 0,0 l/m SW 7,4 km/h (2 Bft)
16.10.2009 08:00 1,9 C 81 % 1025,5 hPa 0,0 l/m W-SW 10,3 km/h (2 Bft)
16.10.2009 09:00 2,7 C 78 % 1025,4 hPa 0,0 l/m W-SW 16,8 km/h (3 Bft)
16.10.2009 10:00 4,0 C 71 % 1025,3 hPa 0,0 l/m W-SW 23,9 km/h (4 Bft)
16.10.2009 11:00 4,5 C 70 % 1024,6 hPa 0,0 l/m W 29,9 km/h (5 Bft)
16.10.2009 12:00 5,2 C 65 % 1023,6 hPa 0,0 l/m W 25,6 km/h (4 Bft)
16.10.2009 13:00 6,0 C 58 % 1022,4 hPa 0,0 l/m W 24,5 km/h (4 Bft)
16.10.2009 14:00 6,1 C 58 % 1021,4 hPa 0,0 l/m W-SW 22,4 km/h (4 Bft)
16.10.2009 15:00 5,4 C 63 % 1020,8 hPa 0,2 l/m W-SW 29,4 km/h (5 Bft)
16.10.2009 16:00 3,8 C 79 % 1020,4 hPa 0,2 l/m W-SW 18,4 km/h (3 Bft)
16.10.2009 17:00 3,7 C 81 % 1020,2 hPa 0,2 l/m W 25,1 km/h (4 Bft)
16.10.2009 18:00 3,2 C 84 % 1020,8 hPa 0,2 l/m W 19,7 km/h (3 Bft)
16.10.2009 19:00 2,9 C 88 % 1021,0 hPa 0,0 l/m W 18,6 km/h (3 Bft)
16.10.2009 20:00 3,1 C 88 % 1020,8 hPa 0,0 l/m W-SW 20,9 km/h (4 Bft)
16.10.2009 21:00 3,4 C 89 % 1020,6 hPa 0,4 l/m W 20,1 km/h (4 Bft)
16.10.2009 22:00 3,5 C 92 % 1020,2 hPa 0,0 l/m W 15,6 km/h (3 Bft)
16.10.2009 23:00 3,6 C 93 % 1019,7 hPa 0,0 l/m W-SW 14,8 km/h (3 Bft)
17.10.2009 00:00 3,8 C 93 % 1019,4 hPa 0,4 l/m SW 10,1 km/h (2 Bft)
17.10.2009 01:00 3,9 C 94 % 1019,1 hPa 0,4 l/m W 14,9 km/h (3 Bft)
17.10.2009 02:00 3,9 C 93 % 1018,9 hPa 0,0 l/m W 19,7 km/h (3 Bft)
17.10.2009 03:00 3,8 C 93 % 1018,4 hPa 0,0 l/m W 15,7 km/h (3 Bft)
17.10.2009 04:00 3,7 C 93 % 1018,2 hPa 0,0 l/m W-NW 14,0 km/h (3 Bft)
17.10.2009 05:00 3,7 C 92 % 1018,1 hPa 0,0 l/m W-NW 16,5 km/h (3 Bft)
17.10.2009 06:00 3,7 C 92 % 1017,9 hPa 0,0 l/m W-NW 14,6 km/h (3 Bft)
17.10.2009 07:00 3,6 C 92 % 1018,1 hPa 0,0 l/m W 16,9 km/h (3 Bft)
17.10.2009 08:00 3,7 C 93 % 1018,5 hPa 0,0 l/m W-NW 12,0 km/h (2 Bft)
17.10.2009 09:00 3,8 C 93 % 1018,9 hPa 0,4 l/m W-NW 10,6 km/h (2 Bft)
17.10.2009 10:00 4,1 C 93 % 1018,8 hPa 0,8 l/m W-NW 11,4 km/h (2 Bft)
17.10.2009 11:00 4,3 C 92 % 1019,0 hPa 0,6 l/m W-NW 11,1 km/h (2 Bft)
17.10.2009 12:00 4,7 C 93 % 1019,0 hPa 0,8 l/m W-NW 10,9 km/h (2 Bft)
17.10.2009 13:00 4,6 C 91 % 1018,8 hPa 1,6 l/m W-NW 17,4 km/h (3 Bft)
17.10.2009 14:00 4,4 C 93 % 1018,6 hPa 0,6 l/m N-NW 10,4 km/h (2 Bft)
17.10.2009 15:00 4,8 C 93 % 1018,6 hPa 1,4 l/m N-NO 9,7 km/h (2 Bft)
17.10.2009 16:00 4,8 C 91 % 1018,8 hPa 0,0 l/m N-NO 11,0 km/h (2 Bft)
17.10.2009 17:00 4,7 C 90 % 1019,1 hPa 0,0 l/m N-NW 10,1 km/h (2 Bft)
17.10.2009 18:00 3,9 C 91 % 1019,7 hPa 0,0 l/m N-NW 8,2 km/h (2 Bft)
17.10.2009 19:00 3,3 C 92 % 1020,2 hPa 0,0 l/m N-NW 7,2 km/h (2 Bft)
17.10.2009 20:00 3,1 C 93 % 1020,7 hPa 0,0 l/m NW 5,7 km/h (1 Bft)
17.10.2009 21:00 3,3 C 93 % 1021,0 hPa 0,0 l/m NW 3,2 km/h (1 Bft)
17.10.2009 22:00 3,2 C 93 % 1021,1 hPa 0,0 l/m NW 3,7 km/h (1 Bft)
17.10.2009 23:00 3,0 C 93 % 1021,1 hPa 0,0 l/m N-NW 3,3 km/h (1 Bft)
18.10.2009 00:00 2,5 C 93 % 1021,0 hPa 0,0 l/m SW 0,9 km/h (0 Bft)
18.10.2009 01:00 2,2 C 94 % 1020,8 hPa 0,0 l/m N 0,0 km/h (0 Bft)
18.10.2009 02:00 2,3 C 94 % 1020,5 hPa 0,0 l/m N 0,4 km/h (0 Bft)
18.10.2009 03:00 1,9 C 94 % 1020,6 hPa 0,0 l/m N 0,7 km/h (0 Bft)
18.10.2009 04:00 1,7 C 95 % 1020,5 hPa 0,0 l/m N 0,1 km/h (0 Bft)
18.10.2009 05:00 1,7 C 96 % 1020,5 hPa 0,0 l/m W 1,5 km/h (1 Bft)
18.10.2009 06:00 1,8 C 96 % 1020,5 hPa 0,0 l/m N 0,3 km/h (0 Bft)
18.10.2009 07:00 2,0 C 96 % 1020,6 hPa 0,4 l/m N 0,9 km/h (0 Bft)
18.10.2009 08:00 2,2 C 96 % 1020,9 hPa 0,4 l/m W 2,1 km/h (1 Bft)
18.10.2009 09:00 2,4 C 97 % 1021,1 hPa 0,6 l/m W 3,2 km/h (1 Bft)
18.10.2009 10:00 3,0 C 97 % 1021,2 hPa 0,6 l/m W 2,5 km/h (1 Bft)
18.10.2009 11:00 3,7 C 96 % 1021,2 hPa 0,2 l/m NW 3,1 km/h (1 Bft)
18.10.2009 12:00 4,3 C 92 % 1021,1 hPa 0,0 l/m N-NO 4,4 km/h (1 Bft)
18.10.2009 13:00 4,7 C 88 % 1020,9 hPa 0,0 l/m O-NO 7,1 km/h (2 Bft)
18.10.2009 14:00 5,3 C 86 % 1020,7 hPa 0,2 l/m O-NO 8,3 km/h (2 Bft)
18.10.2009 15:00 4,7 C 89 % 1020,6 hPa 0,6 l/m NO 4,7 km/h (1 Bft)
18.10.2009 16:00 5,7 C 85 % 1020,5 hPa 0,0 l/m N-NO 6,4 km/h (2 Bft)
18.10.2009 17:00 4,8 C 84 % 1020,8 hPa 0,0 l/m N 15,4 km/h (3 Bft)
18.10.2009 18:00 3,8 C 88 % 1021,3 hPa 0,2 l/m N 8,2 km/h (2 Bft)
18.10.2009 19:00 3,5 C 90 % 1021,5 hPa 0,0 l/m N 1,3 km/h (1 Bft)
18.10.2009 20:00 2,8 C 92 % 1021,8 hPa 0,0 l/m NW 3,1 km/h (1 Bft)
18.10.2009 21:00 2,7 C 94 % 1021,8 hPa 0,0 l/m N 1,1 km/h (0 Bft)
18.10.2009 22:00 2,6 C 94 % 1021,8 hPa 0,0 l/m N 0,8 km/h (0 Bft)
18.10.2009 23:00 1,9 C 93 % 1021,8 hPa 0,0 l/m N 0,9 km/h (0 Bft)
Min-Datum _ 15.10.09 15.10.09 12.10.09 - - 12.10.09
_ Min-Zeit 08:05 13:10 03:55 - - 22:05
Minimum _ -2,4 C 49 % 1004,3 hPa - - 0,0 km/h (0 Bft)
Max-Datum _ 12.10.09 18.10.09 14.10.09 12.10.09 - 12.10.09
_ Max-Zeit 00:00 09:00 11:45 04:35 - 06:00
Maximum _ 11,6 C 97 % 1026,9 hPa 3,6 l/m - 43,5 km/h
N-NW (6 Bft)
Durchschnitt _ 4,0 C 84 % 1021,9 hPa #23,2 l/m W-NW 10,4 km/h (2 Bft)